Location: Alpine
(43.1636°N, 111.0180°W)
Time: 05:38:42
(UTC+00:00)

Tiros 1 despin weight - Pass Details

Date: 28 May 2022
Orbit: 591 x 639 km, 48.2° (Epoch: 30 June)

Event Time Altitude Azimuth Distance (km) Brightness Sun altitude
Rises 06:57:09 0° 292° (WNW) 2,835 ? -25.1°
Reaches altitude 10° 06:59:35 10° 283° (WNW) 1,925 ? -25.2°
Enters shadow 07:01:09 20° 271° (W) 1,399 ? -25.2°
Maximum altitude 07:03:35 35° 218° (SW) 954 - -25.2°
Drops below altitude 10° 07:07:35 10° 152° (SSE) 1,910 - -25.3°
Sets 07:09:59 0° 143° (SE) 2,808 - -25.3°
